• în Republica Moldova
  • Lista ţărilor
  • Pe 7 zile
  • Temperatura apei
  • Hartă satelitară
  • Meteo pe hartă
  • Widget-uri
  • user-avatar
    Intrare

    Meteo pe oră la Barra

    Astăzi, 19 Octombrie, Joi

    Timp Temperatura Precipitaţii Vânt Presiune Umiditate
    00:00 +22°C° 1,1 mm 3 m/s 748 mmHg 94%
    01:00 +24°C° 1,1 mm 3 m/s 748 mmHg 95%
    02:00 +22°C° 2,4 mm 3 m/s 748 mmHg 95%
    03:00 +22°C° 2,4 mm 3 m/s 748 mmHg 96%
    04:00 +22°C° 0 mm 3 m/s 747 mmHg 96%
    05:00 +22°C° 2,6 mm 3 m/s 748 mmHg 96%
    06:00 +22°C° 2,6 mm 3 m/s 748 mmHg 96%
    07:00 +23°C° 2,6 mm 4 m/s 749 mmHg 95%
    08:00 +23°C° 2 mm 4 m/s 749 mmHg 94%
    09:00 +23°C° 2 mm 4 m/s 749 mmHg 94%
    10:00 +25°C° 0 mm 4 m/s 749 mmHg 92%
    11:00 +25°C° 1,4 mm 4 m/s 749 mmHg 91%
    12:00 +25°C° 1,4 mm 4 m/s 749 mmHg 90%
    13:00 +26°C° 1,4 mm 4 m/s 749 mmHg 90%
    14:00 +26°C° 1,4 mm 4 m/s 749 mmHg 88%
    15:00 +26°C° 1,4 mm 4 m/s 748 mmHg 86%
    16:00 +27°C° 0 mm 4 m/s 749 mmHg 84%
    17:00 +26°C° 1,3 mm 4 m/s 749 mmHg 87%
    18:00 +25°C° 1,3 mm 4 m/s 749 mmHg 90%
    19:00 +24°C° 1,3 mm 3 m/s 749 mmHg 94%
    20:00 +23°C° 1,1 mm 4 m/s 750 mmHg 94%
    21:00 +23°C° 1,1 mm 4 m/s 750 mmHg 95%
    22:00 +23°C° 1,1 mm 4 m/s 751 mmHg 95%
    23:00 +23°C° 1,3 mm 4 m/s 750 mmHg 95%

    Mâine, 20 Octombrie, Vineri

    Timp Temperatura Precipitaţii Vânt Presiune Umiditate
    00:00 +23°C° 1,3 mm 4 m/s 750 mmHg 96%
    01:00 +23°C° 1,3 mm 4 m/s 750 mmHg 96%
    02:00 +23°C° 1,6 mm 4 m/s 750 mmHg 96%
    03:00 +23°C° 1,6 mm 4 m/s 750 mmHg 96%
    04:00 +23°C° 1,6 mm 4 m/s 750 mmHg 96%
    05:00 +23°C° 0,8 mm 4 m/s 750 mmHg 95%
    06:00 +23°C° 0,8 mm 4 m/s 750 mmHg 95%
    07:00 +25°C° 0,8 mm 4 m/s 750 mmHg 94%
    08:00 +25°C° 1 mm 5 m/s 750 mmHg 93%
    09:00 +25°C° 1 mm 5 m/s 751 mmHg 92%
    10:00 +25°C° 1 mm 5 m/s 751 mmHg 91%
    11:00 +26°C° 0,6 mm 5 m/s 750 mmHg 89%
    12:00 +26°C° 0,6 mm 5 m/s 750 mmHg 87%
    13:00 +27°C° 0,6 mm 5 m/s 750 mmHg 84%
    14:00 +27°C° 0,2 mm 5 m/s 749 mmHg 83%
    15:00 +27°C° 0,2 mm 5 m/s 749 mmHg 82%
    16:00 +27°C° 0,2 mm 5 m/s 749 mmHg 80%
    17:00 +26°C° 0,1 mm 4 m/s 749 mmHg 84%
    18:00 +25°C° 0,1 mm 4 m/s 749 mmHg 88%
    19:00 +23°C° 0,1 mm 4 m/s 749 mmHg 92%
    20:00 +23°C° 0,1 mm 4 m/s 750 mmHg 93%
    21:00 +24°C° 0,1 mm 3 m/s 750 mmHg 94%
    22:00 +22°C° 0,1 mm 3 m/s 750 mmHg 95%
    23:00 +22°C° 0,1 mm 3 m/s 750 mmHg 95%

    Poimâine, 21 Octombrie, Sâmbătă

    Timp Temperatura Precipitaţii Vânt Presiune Umiditate
    00:00 +22°C° 0,1 mm 3 m/s 749 mmHg 95%
    01:00 +22°C° 0,1 mm 3 m/s 749 mmHg 95%
    02:00 +22°C° 0,1 mm 3 m/s 749 mmHg 95%
    03:00 +22°C° 0,1 mm 3 m/s 748 mmHg 94%
    04:00 +24°C° 0,1 mm 3 m/s 748 mmHg 93%
    05:00 +24°C° 0,1 mm 2 m/s 748 mmHg 92%
    06:00 +24°C° 0,1 mm 2 m/s 748 mmHg 91%
    07:00 +25°C° 0,1 mm 2 m/s 749 mmHg 90%
    08:00 +26°C° 0,1 mm 2 m/s 749 mmHg 82%
    09:00 +28°C° 0,1 mm 2 m/s 749 mmHg 75%
    10:00 +29°C° 0,1 mm 2 m/s 749 mmHg 67%
    11:00 +29°C° 0 mm 2 m/s 748 mmHg 65%
    12:00 +30°C° 0 mm 3 m/s 748 mmHg 63%
    13:00 +30°C° 0 mm 3 m/s 747 mmHg 61%
    14:00 +30°C° 0,1 mm 3 m/s 747 mmHg 63%
    15:00 +29°C° 0,1 mm 3 m/s 746 mmHg 64%
    16:00 +29°C° 0,1 mm 3 m/s 745 mmHg 66%
    17:00 +28°C° 0 mm 3 m/s 746 mmHg 72%
    18:00 +26°C° 0 mm 2 m/s 746 mmHg 77%
    19:00 +25°C° 0 mm 2 m/s 747 mmHg 83%
    20:00 +25°C° 0,1 mm 2 m/s 747 mmHg 84%
    21:00 +25°C° 0,1 mm 1 m/s 747 mmHg 86%
    22:00 +24°C° 0,1 mm 1 m/s 748 mmHg 87%
    23:00 +24°C° 0,3 mm 1 m/s 747 mmHg 89%

    22 Octombrie, Duminică

    Timp Temperatura Precipitaţii Vânt Presiune Umiditate
    00:00 +24°C° 0,3 mm 1 m/s 747 mmHg 91%
    01:00 +24°C° 0,3 mm 1 m/s 746 mmHg 92%
    02:00 +23°C° 0,1 mm 1 m/s 746 mmHg 93%
    03:00 +23°C° 0,1 mm 1 m/s 746 mmHg 93%
    04:00 +23°C° 0,1 mm 1 m/s 745 mmHg 93%
    05:00 +24°C° 0,2 mm 1 m/s 746 mmHg 91%
    06:00 +24°C° 0,2 mm 1 m/s 746 mmHg 88%
    07:00 +25°C° 0,2 mm 1 m/s 747 mmHg 86%
    08:00 +27°C° 0 mm 1 m/s 747 mmHg 75%
    09:00 +30°C° 0 mm 1 m/s 747 mmHg 65%
    10:00 +32°C° 0 mm 1 m/s 747 mmHg 54%
    11:00 +32°C° 0 mm 1 m/s 746 mmHg 54%
    12:00 +32°C° 0 mm 2 m/s 746 mmHg 54%
    13:00 +32°C° 0 mm 2 m/s 745 mmHg 54%
    14:00 +31°C° 0,1 mm 2 m/s 745 mmHg 56%
    15:00 +31°C° 0,1 mm 2 m/s 744 mmHg 58%
    16:00 +31°C° 0,1 mm 2 m/s 744 mmHg 60%
    17:00 +29°C° 0 mm 2 m/s 745 mmHg 68%
    18:00 +27°C° 0 mm 2 m/s 745 mmHg 76%
    19:00 +26°C° 0 mm 2 m/s 746 mmHg 84%
    20:00 +25°C° 0 mm 2 m/s 746 mmHg 86%
    21:00 +25°C° 0 mm 2 m/s 747 mmHg 87%
    22:00 +24°C° 0 mm 2 m/s 747 mmHg 89%
    23:00 +24°C° 0 mm 2 m/s 747 mmHg 90%

    23 Octombrie, Luni

    Timp Temperatura Precipitaţii Vânt Presiune Umiditate
    00:00 +24°C° 0 mm 2 m/s 747 mmHg 90%
    01:00 +23°C° 0 mm 2 m/s 746 mmHg 91%
    02:00 +23°C° 0 mm 2 m/s 746 mmHg 91%
    03:00 +23°C° 0 mm 2 m/s 746 mmHg 90%
    04:00 +23°C° 0 mm 2 m/s 746 mmHg 90%
    05:00 +23°C° 0 mm 1 m/s 747 mmHg 85%
    06:00 +24°C° 0 mm 1 m/s 747 mmHg 80%
    07:00 +25°C° 0 mm 1 m/s 748 mmHg 75%
    08:00 +27°C° 0 mm 1 m/s 748 mmHg 61%
    09:00 +30°C° 0 mm 1 m/s 748 mmHg 48%
    10:00 +33°C° 0 mm 1 m/s 749 mmHg 35%
    11:00 +33°C° 0 mm 1 m/s 748 mmHg 34%
    12:00 +35°C° 0 mm 2 m/s 748 mmHg 34%
    13:00 +35°C° 0 mm 2 m/s 747 mmHg 34%
    14:00 +34°C° 0 mm 3 m/s 747 mmHg 39%
    15:00 +33°C° 0 mm 3 m/s 747 mmHg 45%
    16:00 +32°C° 0 mm 4 m/s 747 mmHg 50%
    17:00 +29°C° 0 mm 3 m/s 747 mmHg 61%
    18:00 +28°C° 0 mm 3 m/s 748 mmHg 72%
    19:00 +26°C° 0 mm 3 m/s 749 mmHg 83%
    20:00 +25°C° 0 mm 3 m/s 749 mmHg 84%
    21:00 +25°C° 0 mm 3 m/s 749 mmHg 86%
    22:00 +25°C° 0 mm 3 m/s 750 mmHg 87%
    23:00 +25°C° 0,1 mm 3 m/s 750 mmHg 88%

    24 Octombrie, Marţi

    Timp Temperatura Precipitaţii Vânt Presiune Umiditate
    00:00 +25°C° 0,1 mm 3 m/s 749 mmHg 89%
    01:00 +25°C° 0,1 mm 3 m/s 749 mmHg 90%
    02:00 +24°C° 0,4 mm 3 m/s 749 mmHg 90%
    03:00 +24°C° 0,4 mm 2 m/s 749 mmHg 91%
    04:00 +24°C° 0,4 mm 2 m/s 749 mmHg 92%
    05:00 +24°C° 0,2 mm 2 m/s 750 mmHg 90%
    06:00 +25°C° 0,2 mm 2 m/s 751 mmHg 88%
    07:00 +25°C° 0,2 mm 2 m/s 751 mmHg 86%
    08:00 +26°C° 0,2 mm 2 m/s 751 mmHg 79%
    09:00 +28°C° 0,2 mm 3 m/s 751 mmHg 72%
    10:00 +29°C° 0,2 mm 3 m/s 752 mmHg 65%
    11:00 +30°C° 0 mm 3 m/s 751 mmHg 62%
    12:00 +30°C° 0 mm 3 m/s 751 mmHg 58%
    13:00 +31°C° 0 mm 3 m/s 750 mmHg 54%
    14:00 +31°C° 0 mm 3 m/s 750 mmHg 55%
    15:00 +30°C° 0 mm 3 m/s 750 mmHg 56%
    16:00 +30°C° 0 mm 3 m/s 749 mmHg 57%
    17:00 +28°C° 0 mm 3 m/s 750 mmHg 64%
    18:00 +26°C° 0 mm 3 m/s 750 mmHg 71%
    19:00 +25°C° 0 mm 3 m/s 751 mmHg 77%
    20:00 +25°C° 0 mm 3 m/s 751 mmHg 79%
    21:00 +24°C° 0 mm 3 m/s 752 mmHg 81%
    22:00 +24°C° 0 mm 3 m/s 752 mmHg 83%
    23:00 +24°C° 0 mm 2 m/s 752 mmHg 84%
    Arată mai mult